Location: Newark
(54.6833°N, 25.2833°E)
Time: 08:27:34
(UTC+00:00)

Tiros 1 despin weight - Pass Details

Date: 22 November 2019
Orbit: 594 x 642 km, 48.2° (Epoch: 14 December)

Event Time Altitude Azimuth Distance (km) Brightness Sun altitude
Rises 15:07:13 0° 270° (W) 2,839 ? -8.4°
Reaches altitude 10° 15:09:52 10° 255° (WSW) 1,940 ? -8.7°
Maximum altitude 15:13:19 22° 204° (SSW) 1,315 ? -9.2°
Drops below altitude 10° 15:16:48 10° 153° (SSE) 1,955 ? -9.7°
Sets 15:19:29 0° 138° (SE) 2,866 ? -10.0°
